[[{"header":{"parameterUnit":"m.s-1","parameterCategory":1,"la1":30.2991,"la2":30.254,"lo1":-89.0895,"lo2":-89.0444,"dy":0.0017,"dx":0.0017,"nx":28,"ny":28,"refTime":"2024-12-16T09:00:00:Z","depth":0,"parameterNumber":2,"parameterNumberName":"U-component_of_WINDS"},"data":[0,0,0,0,0,0,0,0,0,0,0,0,0,0,0,0,0,0,0,0,0,0,0,0,0,0,0,0,0,0,0,0,0,0,0,0,0,0,0,0,0,0,0,0,0,0,0,0,0,0,0,0,0,0,0,0,0,0,-2.4882,-2.4883,0,-2.4977,-2.4978,-2.4979,-2.4934,-2.4931,-2.4929,-2.4927,-2.5023,-2.5028,-2.5033,0,0,0,0,0,0,0,0,0,0,0,0,0,-2.4665,-2.467,-2.4882,-2.4883,-2.4884,-2.4977,-2.4978,-2.4979,-2.4934,-2.4931,-2.4928,-2.4926,-2.5022,-2.5028,-2.5033,0,0,0,0,0,0,0,0,0,0,0,0,0,-2.476,-2.4671,-2.4882,-2.4873,-2.4873,-2.4976,-2.4978,-2.498,-2.4935,-2.4931,-2.4928,-2.4924,-2.502,-2.5027,-2.5034,-2.5151,0,0,-2.5056,-2.5059,0,0,0,0,0,0,0,0,-2.4754,-2.4768,-2.4873,-2.4874,-2.4874,-2.494,-2.4937,-2.5037,-2.4936,-2.4911,-2.4927,-2.4922,-2.4999,-2.5007,-2.5033,-2.5156,-2.516,-2.5057,-2.5061,-2.5064,-2.5067,0,0,0,0,0,0,0,-2.4748,-2.4763,-2.4919,-2.4875,-2.4875,-2.4865,-2.4875,-2.4956,-2.4974,-2.4913,-2.491,-2.4922,-2.4998,-2.5026,-2.5035,-2.5161,-2.5057,-2.5063,-2.5068,-2.507,-2.539,-2.5394,0,0,0,0,0,0,-2.4741,-2.4758,-2.4916,-2.4922,-2.4804,-2.4872,-2.4883,-2.4922,-2.4973,-2.4977,-2.4925,-2.492,-2.5016,-2.5027,-2.5038,-2.5181,-2.5064,-2.5071,-2.5075,-2.5386,-2.5391,-2.5395,0,0,0,0,0,0,-2.4737,-2.4756,-2.4913,-2.484,-2.4859,-2.488,-2.4925,-2.4926,-2.4954,-2.4982,-2.4985,-2.495,-2.5013,-2.5028,-2.5125,-2.5184,-2.5074,-2.5081,-2.5381,-2.5387,-2.5393,-2.5466,0,0,0,0,0,0,-2.4731,-2.4755,-2.4798,-2.4841,-2.4863,-2.4996,-2.4928,-2.4931,-2.4967,-2.496,-2.5006,-2.501,-2.5011,-2.5114,-2.5132,-2.5192,-2.5087,-2.5376,-2.5384,-2.5391,-2.5459,-2.5474,-2.5488,0,0,0,0,0,-2.4723,-2.4814,-2.4801,-2.482,-2.4918,-2.5,-2.5012,-2.5012,-2.4972,-2.5016,-2.5035,-2.5009,-2.5175,-2.5124,-2.5144,-2.5207,-2.5372,-2.5381,-2.539,-2.5452,-2.5471,-2.5487,0,0,0,0,0,0,-2.4776,-2.4819,-2.4805,-2.4912,-2.4953,-2.4992,-2.5048,-2.5031,-2.5084,-2.5076,-2.5073,-2.5084,-2.5185,-2.5205,-2.5148,-2.5325,-2.5267,-2.5281,-2.5308,-2.5326,-2.534,-2.5333,-2.5093,0,0,0,0,0,-2.4801,-2.4863,-2.4898,-2.4989,-2.5011,-2.5026,-2.5062,-2.5059,-2.5101,-2.5117,-2.5143,-2.5185,-2.5247,-2.5288,-2.5346,-2.5462,-2.5473,-2.5516,-2.553,-2.5542,-2.5554,-2.562,-2.564,-2.5426,-2.5426,-2.5426,0,0,-2.4851,-2.4882,-2.4922,-2.5001,-2.5032,-2.5098,-2.5041,-2.5112,-2.5162,-2.5128,-2.5221,-2.5242,-2.529,-2.5398,-2.5446,-2.5418,-2.5616,-2.5554,-2.5563,-2.5568,-2.5632,-2.5652,-2.567,-2.5432,-2.5431,-2.543,0,0,-2.4977,-2.5006,-2.5087,-2.512,-2.5169,-2.518,-2.52,-2.5243,-2.5256,-2.535,-2.5327,-2.5387,-2.5493,-2.5529,-2.556,-2.5706,-2.5685,-2.5725,-2.58,-2.5865,-2.5882,-2.5897,-2.5951,-2.597,-2.5737,-2.5737,-2.5737,0,-2.5033,-2.5131,-2.513,-2.5205,-2.5242,-2.5216,-2.53,-2.5332,-2.5398,-2.5424,-2.5392,-2.5527,-2.5557,-2.5675,-2.5711,-2.5737,-2.5761,-2.5719,-2.588,-2.5895,-2.5909,-2.596,-2.598,-2.5742,-2.5741,-2.5741,-2.5741,0,-2.5199,-2.5268,-2.5328,-2.5393,-2.5437,-2.5515,-2.5528,-2.5573,-2.5567,-2.5582,-2.568,-2.5716,-2.5783,-2.5811,-2.5805,-2.5929,-2.591,-2.5879,-2.5821,-2.5934,-2.5982,-2.6002,-2.5749,-2.5747,-2.5746,-2.5744,0,0,-2.5356,-2.5424,-2.5446,-2.5478,-2.5532,-2.5586,-2.5665,-2.5732,-2.5771,-2.5819,-2.5886,-2.5979,-2.5952,-2.5989,-2.5987,-2.6045,-2.6161,-2.6007,-2.6008,-2.6035,-2.6303,-2.6326,-2.6349,-2.6148,-2.6152,-2.6155,-2.6299,0,-2.5487,-2.5625,-2.5629,-2.5756,-2.5822,-2.5801,-2.5871,-2.5913,-2.5931,-2.599,-2.6009,-2.6076,-2.6034,-2.6057,-2.6112,-2.6135,-2.6215,-2.6124,-2.6212,-2.6215,-2.62,-2.6373,-2.6397,-2.6532,-2.6318,-2.6321,-2.6324,0,-2.5656,-2.5711,-2.5845,-2.5895,-2.5922,-2.5984,-2.6048,-2.6104,-2.6153,-2.6162,-2.6206,-2.6198,-2.6281,-2.6222,-2.6338,-2.6276,-2.6313,-2.633,-2.6336,-2.6343,-2.6275,-2.6386,-2.6574,-2.6595,-2.6353,-2.6351,-2.6348,0,-2.5759,-2.5867,-2.5962,-2.5989,-2.6049,-2.6094,-2.6121,-2.6166,-2.6207,-2.6263,-2.6291,-2.6356,-2.6391,-2.6443,-2.6453,-2.6408,-2.6571,-2.6511,-2.6582,-2.6582,-2.6615,-2.6613,-2.6812,-2.6639,-2.6639,-2.6638,-2.6638,0,-2.5904,-2.5987,-2.601,-2.6068,-2.6162,-2.6168,-2.6261,-2.6285,-2.6326,-2.639,-2.6377,-2.6438,-2.6448,-2.6512,-2.6521,-2.6617,-2.6633,-2.6644,-2.6645,-2.6645,-2.6644,-2.6668,-2.6659,-2.6644,-2.6643,-2.6642,-2.6641,0,-2.6034,-2.6052,-2.6155,-2.6204,-2.6219,-2.6286,-2.6329,-2.6387,-2.6405,-2.6486,-2.6506,-2.6534,-2.6609,-2.6625,-2.6713,-2.672,-2.6835,-2.6827,-2.6818,-2.6818,-2.6888,-2.6881,-2.711,-2.7141,-2.6947,-2.6949,-2.695,0,-2.6125,-2.6189,-2.6247,-2.6289,-2.6319,-2.6387,-2.643,-2.644,-2.6485,-2.6549,-2.6599,-2.6673,-2.6732,-2.6854,-2.6882,-2.6951,-2.6945,-2.7021,-2.6955,-2.6954,-2.6948,-2.6944,-2.6952,-2.7033,-2.7035,-2.7036,-2.7038,0,-2.6285,-2.6292,-2.6354,-2.6422,-2.6474,-2.6527,-2.6578,-2.6614,-2.6631,-2.6683,-2.676,-2.6807,-2.6899,-2.6974,-2.7044,-2.7072,-2.7059,-2.7059,-2.7079,-2.7079,-2.7072,-2.7079,-2.6853,-2.7053,-2.7051,-2.705,-2.7049,-2.7049,-2.6398,-2.6456,-2.6507,-2.6578,-2.6618,-2.6667,-2.6724,-2.6751,-2.6816,-2.6892,-2.6895,-2.698,-2.7031,-2.7124,-2.7158,-2.7226,-2.7202,-2.7231,-2.7239,-2.7246,-2.7253,-2.7062,-2.7239,-2.7238,-2.7238,-2.7237,-2.7237,0,-2.6559,-2.6592,-2.6657,-2.673,-2.6788,-2.6772,-2.6829,-2.6877,-2.6953,-2.7002,-2.7062,-2.7153,-2.7227,-2.7264,-2.7337,-2.7384,-2.738,-2.7403,-2.74,-2.7407,-2.7269,-2.7244,-2.7406,-2.7406,-2.7406,-2.7405,-2.7405,-2.7405,-2.6649,-2.6746,-2.676,-2.6879,-2.6911,-2.6995,-2.7029,-2.7076,-2.7116,-2.7218,-2.728,-2.7304,-2.7349,-2.7427,-2.7495,-2.7504,-2.7532,-2.7558,-2.7564,-2.7434,-2.7417,-2.74,-2.7377,-2.7564,-2.7564,-2.7698,-2.7699,-2.77]},{"header":{"parameterUnit":"m.s-1","parameterCategory":1,"la1":30.2991,"la2":30.254,"lo1":-89.0895,"lo2":-89.0444,"dy":0.0017,"dx":0.0017,"nx":28,"ny":28,"refTime":"2024-12-16T09:00:00:Z","depth":0,"parameterNumber":3,"parameterNumberName":"V-component_of_WINDS"},"data":[0,0,0,0,0,0,0,0,0,0,0,0,0,0,0,0,0,0,0,0,0,0,0,0,0,0,0,0,0,0,0,0,0,0,0,0,0,0,0,0,0,0,0,0,0,0,0,0,0,0,0,0,0,0,0,0,0,0,1.148,1.1481,0,1.1558,1.1559,1.156,1.1628,1.1629,1.1629,1.163,1.1705,1.1706,1.1708,0,0,0,0,0,0,0,0,0,0,0,0,0,1.1386,1.1387,1.148,1.1481,1.1482,1.1558,1.1559,1.156,1.1628,1.1629,1.163,1.1631,1.1705,1.1706,1.1708,0,0,0,0,0,0,0,0,0,0,0,0,0,1.1441,1.1388,1.148,1.1525,1.153,1.1558,1.1559,1.156,1.1628,1.1629,1.163,1.1631,1.1704,1.1706,1.1708,1.1696,0,0,1.1714,1.1715,0,0,0,0,0,0,0,0,1.1438,1.1445,1.1517,1.1522,1.1527,1.1585,1.1554,1.1606,1.1627,1.159,1.163,1.1632,1.1664,1.1669,1.1681,1.17,1.1703,1.1714,1.1715,1.1716,1.1716,0,0,0,0,0,0,0,1.1434,1.1442,1.1511,1.1518,1.1524,1.154,1.1549,1.1564,1.1619,1.1594,1.1599,1.1607,1.1667,1.1679,1.1683,1.1704,1.1714,1.1716,1.1717,1.1718,1.1718,1.1717,0,0,0,0,0,0,1.1424,1.1438,1.1508,1.1513,1.1485,1.1541,1.1551,1.1565,1.1619,1.1629,1.1606,1.161,1.1675,1.1681,1.1686,1.1677,1.1716,1.1718,1.1719,1.1719,1.1718,1.1717,0,0,0,0,0,0,1.1422,1.143,1.1505,1.1477,1.1488,1.1541,1.1556,1.1566,1.1578,1.1629,1.1639,1.1609,1.1676,1.1683,1.1694,1.168,1.1719,1.172,1.1721,1.1719,1.1717,1.1657,0,0,0,0,0,0,1.1419,1.1428,1.1425,1.1477,1.1489,1.1512,1.1555,1.1566,1.1582,1.1588,1.1634,1.1643,1.1678,1.1691,1.1696,1.1683,1.1722,1.1722,1.172,1.1718,1.166,1.1653,1.1647,0,0,0,0,0,1.1415,1.1403,1.1424,1.1432,1.1486,1.1511,1.1518,1.156,1.1581,1.1577,1.161,1.1641,1.1681,1.1691,1.1697,1.1685,1.1723,1.1721,1.1718,1.1663,1.1654,1.1647,0,0,0,0,0,0,1.1346,1.1411,1.1435,1.144,1.147,1.1523,1.152,1.155,1.1573,1.1578,1.1628,1.1637,1.1642,1.1665,1.1675,1.1678,1.1706,1.1705,1.1662,1.1655,1.1648,1.1642,1.1723,0,0,0,0,0,1.1332,1.1348,1.1403,1.1402,1.1416,1.1465,1.1478,1.1508,1.154,1.1553,1.1586,1.1615,1.1635,1.1646,1.1667,1.1664,1.1675,1.1659,1.1653,1.1647,1.1645,1.1646,1.164,1.1709,1.1709,1.1709,0,0,1.1302,1.1339,1.1346,1.1389,1.1416,1.1431,1.1475,1.1489,1.15,1.1554,1.1567,1.1592,1.1628,1.1632,1.1636,1.1652,1.1629,1.1644,1.1639,1.164,1.1643,1.1636,1.163,1.1707,1.1707,1.1707,0,0,1.1255,1.1285,1.1288,1.1314,1.1356,1.1389,1.1389,1.1438,1.1458,1.1472,1.1514,1.1527,1.1559,1.1583,1.16,1.1564,1.1594,1.157,1.1535,1.1536,1.153,1.1526,1.1513,1.1508,1.1568,1.1567,1.1567,0,1.1211,1.1237,1.1285,1.1297,1.1314,1.1367,1.137,1.1393,1.1438,1.1448,1.1466,1.1509,1.1536,1.1547,1.1539,1.1551,1.1553,1.1564,1.1528,1.1523,1.152,1.1508,1.1503,1.1564,1.1565,1.1565,1.1565,0,1.1182,1.1199,1.1196,1.124,1.1258,1.1265,1.1314,1.1326,1.1355,1.1386,1.14,1.1435,1.1464,1.147,1.1497,1.1485,1.1493,1.1518,1.1548,1.1509,1.1499,1.1495,1.156,1.1561,1.1562,1.1562,0,0,1.1091,1.1164,1.1162,1.1184,1.1234,1.1247,1.1257,1.1288,1.1297,1.1327,1.1336,1.1363,1.1387,1.1406,1.1437,1.1438,1.1408,1.1463,1.1465,1.1451,1.1396,1.1376,1.137,1.1428,1.1428,1.1427,1.1393,0,1.1051,1.1073,1.1118,1.1125,1.1142,1.1193,1.1202,1.1233,1.1263,1.128,1.1313,1.1332,1.1362,1.1374,1.1377,1.1411,1.1397,1.1414,1.1436,1.1436,1.1424,1.1365,1.1344,1.131,1.139,1.1389,1.1388,0,1.1007,1.1037,1.1046,1.1097,1.1106,1.1113,1.1145,1.1162,1.1199,1.122,1.1242,1.1278,1.129,1.1318,1.1336,1.1346,1.1358,1.1376,1.1376,1.1379,1.1409,1.1365,1.13,1.1295,1.1383,1.1383,1.1384,0,1.094,1.0981,1.0993,1.101,1.107,1.1073,1.1098,1.1137,1.1153,1.1181,1.1192,1.122,1.1235,1.1256,1.1298,1.1315,1.131,1.1342,1.1328,1.1327,1.1323,1.1323,1.1258,1.1332,1.1332,1.1332,1.1333,0,1.0891,1.0894,1.0964,1.0971,1.0977,1.1028,1.1032,1.1062,1.1096,1.1109,1.1155,1.1165,1.122,1.1237,1.127,1.128,1.1286,1.1303,1.1312,1.1299,1.1296,1.1306,1.1309,1.1331,1.1331,1.1332,1.1332,0,1.0815,1.0862,1.0878,1.0935,1.0949,1.0951,1.0999,1.1007,1.1041,1.1057,1.1063,1.1115,1.1138,1.1183,1.1217,1.1239,1.1241,1.1256,1.1229,1.1234,1.1217,1.1217,1.1155,1.115,1.1228,1.1227,1.1226,0,1.078,1.0785,1.0843,1.0856,1.088,1.09,1.0917,1.0968,1.0984,1.1028,1.1031,1.1058,1.1082,1.1116,1.1156,1.1182,1.1198,1.1175,1.1202,1.1189,1.1197,1.1196,1.1197,1.1168,1.1167,1.1166,1.1165,0,1.0713,1.0736,1.0761,1.0794,1.0814,1.0842,1.0872,1.0879,1.0938,1.0953,1.0978,1.0997,1.1034,1.106,1.1093,1.1117,1.115,1.1157,1.1155,1.1141,1.1124,1.1133,1.1211,1.1157,1.1158,1.1159,1.1159,1.1159,1.0656,1.0663,1.0706,1.0732,1.076,1.0788,1.0799,1.0836,1.0858,1.0893,1.0922,1.0944,1.0982,1.1031,1.1053,1.1071,1.1087,1.1084,1.1083,1.1081,1.1076,1.1123,1.1077,1.1077,1.1078,1.1078,1.1078,0,1.0591,1.0622,1.0645,1.0687,1.0708,1.074,1.0776,1.079,1.081,1.0844,1.0867,1.0896,1.0922,1.0965,1.0995,1.1,1.1016,1.1006,1.1006,1.1011,1.106,1.1059,1.0993,1.0993,1.0993,1.0993,1.0993,1.0993,1.0559,1.0573,1.0602,1.063,1.0661,1.0685,1.0703,1.0728,1.0756,1.0787,1.0809,1.0838,1.0875,1.0908,1.0933,1.0945,1.0953,1.0938,1.0954,1.0999,1.1007,1.1015,1.1014,1.094,1.094,1.0904,1.0904,1.0903]}]]